Météo Nord-Pas-de-Calais   La météo au plus près de chez vous

Station météorologique

Observations météo à Toulouse-Blagnac (31069)

31069001 151 m Dernier relevé à 18:00
31.2°C
Humidité 27 % Vent 11.9 km/h 1021.8 hPa

Journée consultée

Jeudi 3 Septembre 2026

Synthèse de la journée

Périodes de référence en UTC

Température maximale

31.8°C

à 17:42

06h 06h

Température minimale

16.5°C

à 08:00

18h 18h

Rafale maximale

26 km/h

à 15:54

00h 00h

Précipitations

0 mm

Cumul quotidien

06h 06h

Ensoleillement

10h 19 mins

Durée quotidienne

00h 00h

Graphiques de la journée

Heure locale Réduire

Données détaillées

Relevés météo

Pas de 6 minutes Afficher les relevés infra-horaires
Relevés météo détaillés à Toulouse-Blagnac pour le Jeudi 3 Septembre 2026
Heure Température °C Point de rosée °C Humidité % Vent moyen (raf.), km/h Précipitations mm Température à 10 cm °C Température à 20 cm °C Température à 50 cm °C Température à 100 cm °C Visibilité m État du sol   Hauteur neige cm Ensoleillement min Rayonnement global W/m² Pression hPa
18:00 31.2 °C 8.8 °C 25 % 8 km/h (17 km/h) 0 mm0 mm 27.8 °C 25.9 °C 24.5 °C 23.2 °C 60000 m 0   0 cm 6 min 149.4 W/m² 1021.3 hPa
17:54 31.4 °C 9 °C 25 % 10 km/h (21 km/h) 0 mm0 mm 27.8 °C 25.9 °C 24.4 °C 23.2 °C 60000 m 0   0 cm 6 min 155.8 W/m² 1021.3 hPa
17:48 31.5 °C 9.7 °C 26 % 11 km/h (21 km/h) 0 mm0 mm 27.7 °C 25.8 °C 24.4 °C 23.2 °C 60000 m 0   0 cm 6 min 162.2 W/m² 1021.4 hPa
17:42 31.8 °C 9.9 °C 26 % 10 km/h (19 km/h) 0 mm0 mm 27.7 °C 25.9 °C 24.5 °C 23.2 °C 60000 m 0   0 cm 6 min 168.6 W/m² 1021.5 hPa
17:36 31.7 °C 9.8 °C 26 % 13 km/h (19 km/h) 0 mm0 mm 27.7 °C 25.8 °C 24.5 °C 23.2 °C 60000 m 0   0 cm 6 min 174.7 W/m² 1021.5 hPa
17:30 31.4 °C 9 °C 25 % 12 km/h (21 km/h) 0 mm0 mm 27.6 °C 25.8 °C 24.5 °C 23.3 °C 60000 m 0   0 cm 6 min 181.5 W/m² 1021.5 hPa
17:24 31.3 °C 10.1 °C 27 % 10 km/h (17 km/h) 0 mm0 mm 27.6 °C 25.7 °C 24.5 °C 23.2 °C 60000 m 0   0 cm 6 min 187.1 W/m² 1021.6 hPa
17:18 31 °C 10.4 °C 28 % 11 km/h (22 km/h) 0 mm0 mm 27.5 °C 25.7 °C 24.5 °C 23.2 °C 60000 m 0   0 cm 6 min 192.8 W/m² 1021.7 hPa
17:12 31.2 °C 10 °C 27 % 12 km/h (23 km/h) 0 mm0 mm 27.5 °C 25.6 °C 24.4 °C 23.2 °C 60000 m 0   0 cm 6 min 198.9 W/m² 1021.6 hPa
17:06 31.2 °C 10 °C 27 % 9 km/h (23 km/h) 0 mm0 mm 27.4 °C 25.6 °C 24.5 °C 23.2 °C 60000 m 0   0 cm 6 min 203.9 W/m² 1021.6 hPa
17:00 31 °C 9.8 °C 27 % 12 km/h (20 km/h) 0 mm0 mm 27.4 °C 25.6 °C 24.5 °C 23.2 °C 60000 m 0   0 cm 6 min 209.1 W/m² 1021.8 hPa
16:54 31.1 °C 9.9 °C 27 % 13 km/h (21 km/h) 0 mm0 mm 27.3 °C 25.6 °C 24.5 °C 23.2 °C 60000 m 0   0 cm 6 min 214.5 W/m² 1021.9 hPa
16:48 30.9 °C 10.3 °C 28 % 13 km/h (21 km/h) 0 mm0 mm 27.3 °C 25.5 °C 24.5 °C 23.2 °C 41130 m 0   0 cm 6 min 219.7 W/m² 1021.9 hPa
16:42 30.9 °C 10.3 °C 28 % 12 km/h (19 km/h) 0 mm0 mm 27.2 °C 25.5 °C 24.5 °C 23.2 °C 41130 m 0   0 cm 6 min 224.5 W/m² 1022 hPa
16:36 31 °C 10.4 °C 28 % 13 km/h (19 km/h) 0 mm0 mm 27.2 °C 25.5 °C 24.5 °C 23.2 °C 60000 m 0   0 cm 6 min 229.5 W/m² 1022 hPa
16:30 31 °C 10.9 °C 29 % 13 km/h (22 km/h) 0 mm0 mm 27.1 °C 25.4 °C 24.5 °C 23.2 °C 60000 m 0   0 cm 6 min 234.4 W/m² 1022 hPa
16:24 31 °C 10.9 °C 29 % 14 km/h (22 km/h) 0 mm0 mm 27 °C 25.3 °C 24.5 °C 23.2 °C 60000 m 0   0 cm 6 min 238.8 W/m² 1022.1 hPa
16:18 30.9 °C 10.8 °C 29 % 14 km/h (24 km/h) 0 mm0 mm 27 °C 25.3 °C 24.5 °C 23.2 °C 60000 m 0   0 cm 6 min 243.1 W/m² 1022.1 hPa
16:12 31 °C 11.4 °C 30 % 11 km/h (24 km/h) 0 mm0 mm 26.9 °C 25.3 °C 24.5 °C 23.2 °C 60000 m 0   0 cm 6 min 247 W/m² 1022.1 hPa
16:06 30.8 °C 11.2 °C 30 % 11 km/h (22 km/h) 0 mm0 mm 26.9 °C 25.3 °C 24.5 °C 23.2 °C 56310 m 0   0 cm 6 min 252.1 W/m² 1022.1 hPa
16:00 30.8 °C 11.2 °C 30 % 14 km/h (26 km/h) 0 mm0 mm 26.8 °C 25.2 °C 24.5 °C 23.2 °C 56790 m 0   0 cm 6 min 256.6 W/m² 1022.2 hPa
15:54 30.9 °C 11.8 °C 31 % 14 km/h (26 km/h) 0 mm0 mm 26.7 °C 25.2 °C 24.5 °C 23.2 °C 60000 m 0   0 cm 6 min 259.2 W/m² 1022.2 hPa
15:48 30.7 °C 12.1 °C 32 % 11 km/h (19 km/h) 0 mm0 mm 26.6 °C 25.2 °C 24.5 °C 23.2 °C 60000 m 0   0 cm 6 min 262.9 W/m² 1022.3 hPa
15:42 30.4 °C 11.9 °C 32 % 11 km/h (21 km/h) 0 mm0 mm 26.6 °C 25.1 °C 24.5 °C 23.2 °C 60000 m 0   0 cm 6 min 265.9 W/m² 1022.3 hPa
15:36 30.5 °C 12.4 °C 33 % 9 km/h (24 km/h) 0 mm0 mm 26.5 °C 25.1 °C 24.5 °C 23.2 °C 60000 m 0   0 cm 6 min 269.6 W/m² 1022.4 hPa
15:30 30.4 °C 11.9 °C 32 % 10 km/h (24 km/h) 0 mm0 mm 26.4 °C 25.1 °C 24.5 °C 23.2 °C 17920 m 0   0 cm 6 min 273 W/m² 1022.4 hPa
15:24 30.4 °C 11.9 °C 32 % 9 km/h (19 km/h) 0 mm0 mm 26.4 °C 25 °C 24.5 °C 23.2 °C 17920 m 0   0 cm 6 min 275.9 W/m² 1022.5 hPa
15:18 30.1 °C 12.1 °C 33 % 10 km/h (22 km/h) 0 mm0 mm 26.3 °C 25 °C 24.5 °C 23.2 °C 60000 m 0   0 cm 6 min 278.7 W/m² 1022.6 hPa
15:12 30.3 °C 12.2 °C 33 % 13 km/h (23 km/h) 0 mm0 mm 26.2 °C 25 °C 24.5 °C 23.2 °C 57500 m 0   0 cm 6 min 281.3 W/m² 1022.6 hPa
15:06 29.9 °C 11.9 °C 33 % 13 km/h (24 km/h) 0 mm0 mm 26.1 °C 24.9 °C 24.5 °C 23.2 °C 59950 m 0   0 cm 6 min 283.3 W/m² 1022.6 hPa
15:00 30.3 °C 12.7 °C 34 % 8 km/h (24 km/h) 0 mm0 mm 26 °C 24.9 °C 24.5 °C 23.2 °C 17590 m 0   0 cm 6 min 285.5 W/m² 1022.7 hPa
14:54 29.9 °C 12.3 °C 34 % 8 km/h (22 km/h) 0 mm0 mm 26 °C 24.9 °C 24.5 °C 23.2 °C 17590 m 0   0 cm 6 min 287.5 W/m² 1022.8 hPa
14:48 29.9 °C 12.3 °C 34 % 10 km/h (22 km/h) 0 mm0 mm 25.9 °C 24.9 °C 24.5 °C 23.2 °C 26660 m 0   0 cm 6 min 289.3 W/m² 1022.8 hPa
14:42 29.9 °C 12.3 °C 34 % 10 km/h (21 km/h) 0 mm0 mm 25.8 °C 24.9 °C 24.6 °C 23.2 °C 60000 m 0   0 cm 6 min 291.8 W/m² 1022.9 hPa
14:36 29.7 °C 12.2 °C 34 % 12 km/h (21 km/h) 0 mm0 mm 25.8 °C 24.8 °C 24.5 °C 23.2 °C 60000 m 0   0 cm 6 min 293.3 W/m² 1022.9 hPa
14:30 29.7 °C 11.7 °C 33 % 14 km/h (22 km/h) 0 mm0 mm 25.7 °C 24.8 °C 24.6 °C 23.2 °C 60000 m 0   0 cm 6 min 294.5 W/m² 1022.9 hPa
14:24 29.8 °C 11.8 °C 33 % 13 km/h (23 km/h) 0 mm0 mm 25.6 °C 24.8 °C 24.6 °C 23.2 °C 19770 m 0   0 cm 6 min 295.4 W/m² 1023 hPa
14:18 29.6 °C 12.5 °C 35 % 9 km/h (23 km/h) 0 mm0 mm 25.6 °C 24.8 °C 24.6 °C 23.2 °C 19770 m 0   0 cm 6 min 296.2 W/m² 1023 hPa
14:12 29.2 °C 12.6 °C 36 % 9 km/h (21 km/h) 0 mm0 mm 25.5 °C 24.7 °C 24.5 °C 23.2 °C 60000 m 0   0 cm 6 min 296.1 W/m² 1023.2 hPa
14:06 29.4 °C 12.8 °C 36 % 10 km/h (21 km/h) 0 mm0 mm 25.4 °C 24.7 °C 24.5 °C 23.2 °C 19770 m 0   0 cm 6 min 296.8 W/m² 1023.3 hPa
14:00 29 °C 12.8 °C 37 % 11 km/h (23 km/h) 0 mm0 mm 25.3 °C 24.7 °C 24.5 °C 23.2 °C 19770 m 0   0 cm 6 min 296.6 W/m² 1023.4 hPa
13:54 29 °C 12.8 °C 37 % 12 km/h (23 km/h) 0 mm0 mm 25.3 °C 24.7 °C 24.6 °C 23.2 °C 60000 m 0   0 cm 6 min 295.8 W/m² 1023.3 hPa
13:48 29 °C 13.6 °C 39 % 6 km/h (17 km/h) 0 mm0 mm 25.2 °C 24.6 °C 24.5 °C 23.2 °C 60000 m 0   0 cm 6 min 295.9 W/m² 1023.4 hPa
13:42 28.3 °C 12.6 °C 38 % 7 km/h (12 km/h) 0 mm0 mm 25.1 °C 24.7 °C 24.6 °C 23.2 °C 60000 m 0   0 cm 6 min 296.5 W/m² 1023.4 hPa
13:36 28.2 °C 12.9 °C 39 % 9 km/h (17 km/h) 0 mm0 mm 25.1 °C 24.6 °C 24.6 °C 23.2 °C 60000 m 0   0 cm 6 min 296.2 W/m² 1023.4 hPa
13:30 28.1 °C 12.8 °C 39 % 10 km/h (22 km/h) 0 mm0 mm 25 °C 24.6 °C 24.6 °C 23.2 °C 19850 m 0   0 cm 6 min 294.1 W/m² 1023.5 hPa
13:24 28.4 °C 13.5 °C 40 % 7 km/h (15 km/h) 0 mm0 mm 24.9 °C 24.6 °C 24.6 °C 23.2 °C 60000 m 0   0 cm 6 min 292.9 W/m² 1023.6 hPa
13:18 27.9 °C 13.4 °C 41 % 7 km/h (15 km/h) 0 mm0 mm 24.9 °C 24.6 °C 24.6 °C 23.2 °C 60000 m 0   0 cm 6 min 291.5 W/m² 1023.7 hPa
13:12 28 °C 13.5 °C 41 % 9 km/h (16 km/h) 0 mm0 mm 24.8 °C 24.6 °C 24.6 °C 23.2 °C 60000 m 0   0 cm 6 min 289.9 W/m² 1023.8 hPa
13:06 27.7 °C 13.2 °C 41 % 9 km/h (16 km/h) 0 mm0 mm 24.8 °C 24.6 °C 24.6 °C 23.2 °C 60000 m 0   0 cm 6 min 288.3 W/m² 1024 hPa
13:00 27.2 °C 13.2 °C 42 % 9 km/h (15 km/h) 0 mm0 mm 24.7 °C 24.6 °C 24.6 °C 23.2 °C 59310 m 0   0 cm 6 min 286.1 W/m² 1024 hPa
12:54 27.2 °C 12.8 °C 41 % 9 km/h (16 km/h) 0 mm0 mm 24.6 °C 24.5 °C 24.6 °C 23.2 °C 59310 m 0   0 cm 6 min 283.3 W/m² 1024.1 hPa
12:48 27.2 °C 12.8 °C 41 % 8 km/h (16 km/h) 0 mm0 mm 24.6 °C 24.5 °C 24.6 °C 23.2 °C 60000 m 0   0 cm 6 min 280.9 W/m² 1024.2 hPa
12:42 27.2 °C 12.8 °C 41 % 9 km/h (16 km/h) 0 mm0 mm 24.5 °C 24.5 °C 24.6 °C 23.2 °C 60000 m 0   0 cm 6 min 278.2 W/m² 1024.3 hPa
12:36 27.2 °C 12.8 °C 41 % 8 km/h (16 km/h) 0 mm0 mm 24.5 °C 24.5 °C 24.6 °C 23.2 °C 19700 m 0   0 cm 6 min 275.1 W/m² 1024.3 hPa
12:30 26.9 °C 12.9 °C 42 % 6 km/h (14 km/h) 0 mm0 mm 24.4 °C 24.5 °C 24.6 °C 23.2 °C 60000 m 0   0 cm 6 min 272.2 W/m² 1024.4 hPa
12:24 26.8 °C 13.2 °C 43 % 9 km/h (17 km/h) 0 mm0 mm 24.4 °C 24.5 °C 24.6 °C 23.2 °C 60000 m 0   0 cm 6 min 268.9 W/m² 1024.5 hPa
12:18 26.6 °C 12.6 °C 42 % 8 km/h (17 km/h) 0 mm0 mm 24.3 °C 24.5 °C 24.6 °C 23.2 °C 60000 m 0   0 cm 6 min 265.9 W/m² 1024.6 hPa
12:12 26.2 °C 13 °C 44 % 8 km/h (18 km/h) 0 mm0 mm 24.3 °C 24.5 °C 24.6 °C 23.2 °C 60000 m 0   0 cm 6 min 261.9 W/m² 1024.6 hPa
12:06 26.3 °C 13.1 °C 44 % 9 km/h (18 km/h) 0 mm0 mm 24.2 °C 24.5 °C 24.6 °C 23.2 °C 18680 m 0   0 cm 6 min 258.4 W/m² 1024.6 hPa
12:00 26.1 °C 12.9 °C 44 % 6 km/h (13 km/h) 0 mm0 mm 24.2 °C 24.5 °C 24.6 °C 23.2 °C 18680 m 0   0 cm 6 min 255.1 W/m² 1024.7 hPa
11:54 26 °C 13.1 °C 45 % 6 km/h (11 km/h) 0 mm0 mm 24.2 °C 24.5 °C 24.6 °C 23.2 °C 60000 m 0   0 cm 6 min 251.4 W/m² 1024.7 hPa
11:48 25.8 °C 13 °C 45 % 6 km/h (13 km/h) 0 mm0 mm 24.1 °C 24.5 °C 24.6 °C 23.2 °C 60000 m 0   0 cm 6 min 247.5 W/m² 1024.8 hPa
11:42 25.8 °C 12.6 °C 44 % 5 km/h (11 km/h) 0 mm0 mm 24.1 °C 24.5 °C 24.6 °C 23.2 °C 60000 m 0   0 cm 6 min 243.9 W/m² 1024.9 hPa
11:36 25.6 °C 13.1 °C 46 % 6 km/h (10 km/h) 0 mm0 mm 24.1 °C 24.5 °C 24.6 °C 23.2 °C 60000 m 0   0 cm 6 min 239.7 W/m² 1024.9 hPa
11:30 25.4 °C 12.9 °C 46 % 5 km/h (10 km/h) 0 mm0 mm 24 °C 24.5 °C 24.6 °C 23.2 °C 60000 m 0   0 cm 6 min 235.6 W/m² 1024.9 hPa
11:24 25 °C 12.9 °C 47 % 5 km/h (10 km/h) 0 mm0 mm 24 °C 24.5 °C 24.6 °C 23.2 °C 60000 m 0   0 cm 6 min 231.1 W/m² 1024.9 hPa
11:18 24.9 °C 13.1 °C 48 % 5 km/h (10 km/h) 0 mm0 mm 24 °C 24.5 °C 24.6 °C 23.2 °C 60000 m 0   0 cm 6 min 226.4 W/m² 1024.9 hPa
11:12 24.8 °C 13 °C 48 % 5 km/h (9 km/h) 0 mm0 mm 24 °C 24.5 °C 24.6 °C 23.2 °C 60000 m 0   0 cm 6 min 221.5 W/m² 1024.9 hPa
11:06 24.5 °C 13.4 °C 50 % 3 km/h (8 km/h) 0 mm0 mm 23.9 °C 24.5 °C 24.6 °C 23.2 °C 60000 m 0   0 cm 6 min 216.4 W/m² 1025 hPa
11:00 24.1 °C 13 °C 50 % 4 km/h (9 km/h) 0 mm0 mm 23.9 °C 24.6 °C 24.6 °C 23.2 °C 60000 m 0   0 cm 6 min 211.1 W/m² 1025.1 hPa
10:54 23.7 °C 13 °C 51 % 5 km/h (9 km/h) 0 mm0 mm 23.9 °C 24.6 °C 24.6 °C 23.2 °C 60000 m 0   0 cm 6 min 205.9 W/m² 1025.1 hPa
10:48 23.4 °C 12.7 °C 51 % 5 km/h (10 km/h) 0 mm0 mm 23.9 °C 24.6 °C 24.6 °C 23.2 °C 60000 m 0   0 cm 6 min 200.3 W/m² 1025 hPa
10:42 23 °C 12.6 °C 52 % 5 km/h (11 km/h) 0 mm0 mm 23.9 °C 24.6 °C 24.6 °C 23.2 °C 60000 m 0   0 cm 6 min 195 W/m² 1025 hPa
10:36 23.1 °C 13 °C 53 % 4 km/h (11 km/h) 0 mm0 mm 23.9 °C 24.6 °C 24.6 °C 23.2 °C 60000 m 0   0 cm 6 min 188.7 W/m² 1024.9 hPa
10:30 22.8 °C 13 °C 54 % 5 km/h (10 km/h) 0 mm0 mm 23.9 °C 24.6 °C 24.6 °C 23.2 °C 60000 m 0   0 cm 6 min 183.1 W/m² 1025.1 hPa
10:24 22.4 °C 12.9 °C 55 % 6 km/h (10 km/h) 0 mm0 mm 23.9 °C 24.6 °C 24.6 °C 23.2 °C 60000 m 0   0 cm 6 min 176.7 W/m² 1025.1 hPa
10:18 22.1 °C 12.6 °C 55 % 5 km/h (9 km/h) 0 mm0 mm 23.9 °C 24.6 °C 24.6 °C 23.2 °C 60000 m 0   0 cm 6 min 170.4 W/m² 1025.1 hPa
10:12 21.6 °C 12.7 °C 57 % 5 km/h (9 km/h) 0 mm0 mm 23.9 °C 24.6 °C 24.6 °C 23.2 °C 60000 m 0   0 cm 6 min 163.9 W/m² 1025.1 hPa
10:06 21.5 °C 12.6 °C 57 % 5 km/h (10 km/h) 0 mm0 mm 23.9 °C 24.7 °C 24.6 °C 23.2 °C 60000 m 0   0 cm 6 min 157.9 W/m² 1025.1 hPa
10:00 21.4 °C 12.8 °C 58 % 5 km/h (10 km/h) 0 mm0 mm 23.9 °C 24.7 °C 24.6 °C 23.2 °C 60000 m 0   0 cm 6 min 151.3 W/m² 1025.1 hPa
09:54 21 °C 12.7 °C 59 % 5 km/h (9 km/h) 0 mm0 mm 23.9 °C 24.7 °C 24.6 °C 23.2 °C 60000 m 0   0 cm 6 min 144.8 W/m² 1025.2 hPa
09:48 21 °C 12.7 °C 59 % 3 km/h (8 km/h) 0 mm0 mm 23.9 °C 24.7 °C 24.6 °C 23.2 °C 60000 m 0   0 cm 6 min 138.1 W/m² 1025.2 hPa
09:42 20.9 °C 12.8 °C 60 % 4 km/h (8 km/h) 0 mm0 mm 23.9 °C 24.7 °C 24.6 °C 23.2 °C 60000 m 0   0 cm 6 min 131.8 W/m² 1025.2 hPa
09:36 20.6 °C 12.6 °C 60 % 4 km/h (8 km/h) 0 mm0 mm 23.9 °C 24.7 °C 24.6 °C 23.2 °C 60000 m 0   0 cm 6 min 125 W/m² 1025.2 hPa
09:30 20.2 °C 13.2 °C 64 % 5 km/h (9 km/h) 0 mm0 mm 23.9 °C 24.8 °C 24.6 °C 23.2 °C 60000 m 0   0 cm 6 min 118.1 W/m² 1025.1 hPa
09:24 19.8 °C 12.8 °C 64 % 5 km/h (9 km/h) 0 mm0 mm 24 °C 24.8 °C 24.6 °C 23.2 °C 60000 m 0   0 cm 6 min 111.5 W/m² 1025.1 hPa
09:18 19.6 °C 12.8 °C 65 % 5 km/h (9 km/h) 0 mm0 mm 24 °C 24.8 °C 24.6 °C 23.2 °C 60000 m 0   0 cm 6 min 104.6 W/m² 1025.1 hPa
09:12 19.4 °C 12.6 °C 65 % 6 km/h (9 km/h) 0 mm0 mm 24 °C 24.8 °C 24.6 °C 23.2 °C 60000 m 0   0 cm 6 min 97.8 W/m² 1025.3 hPa
09:06 19.4 °C 12.9 °C 66 % 7 km/h (10 km/h) 0 mm0 mm 24 °C 24.8 °C 24.6 °C 23.2 °C 60000 m 0   0 cm 6 min 90.6 W/m² 1025.3 hPa
09:00 19.2 °C 12.7 °C 66 % 6 km/h (10 km/h) 0 mm0 mm 24 °C 24.8 °C 24.6 °C 23.2 °C 60000 m 0   0 cm 6 min 83.6 W/m² 1025.3 hPa
08:54 19.1 °C 12.6 °C 66 % 6 km/h (9 km/h) 0 mm0 mm 24 °C 24.9 °C 24.6 °C 23.2 °C 60000 m 0   0 cm 6 min 76.9 W/m² 1025.3 hPa
08:48 18.8 °C 12.8 °C 68 % 6 km/h (8 km/h) 0 mm0 mm 24 °C 24.9 °C 24.6 °C 23.2 °C 60000 m 0   0 cm 6 min 70.6 W/m² 1025.4 hPa
08:42 18.6 °C 12.6 °C 68 % 7 km/h (9 km/h) 0 mm0 mm 24 °C 24.9 °C 24.6 °C 23.2 °C 60000 m 0   0 cm 6 min 64.3 W/m² 1025.2 hPa
08:36 18.3 °C 12.9 °C 71 % 6 km/h (9 km/h) 0 mm0 mm 24.1 °C 24.9 °C 24.6 °C 23.2 °C 60000 m 0   0 cm 6 min 57.4 W/m² 1025.2 hPa
08:30 18 °C 12.7 °C 71 % 5 km/h (8 km/h) 0 mm0 mm 24.1 °C 24.9 °C 24.6 °C 23.2 °C 60000 m 0   0 cm 6 min 50.3 W/m² 1025.2 hPa
08:24 17.8 °C 12.7 °C 72 % 5 km/h (8 km/h) 0 mm0 mm 24.1 °C 24.9 °C 24.6 °C 23.2 °C 60000 m 0   0 cm 6 min 43.5 W/m² 1025.3 hPa
08:18 17.6 °C 12.7 °C 73 % 6 km/h (8 km/h) 0 mm0 mm 24.2 °C 25 °C 24.6 °C 23.2 °C 60000 m 0   0 cm 6 min 36.9 W/m² 1025.2 hPa
08:12 17.4 °C 12.7 °C 74 % 7 km/h (9 km/h) 0 mm0 mm 24.1 °C 24.9 °C 24.6 °C 23.2 °C 60000 m 0   0 cm 6 min 31.3 W/m² 1025.2 hPa
08:06 17.2 °C 12.5 °C 74 % 6 km/h (9 km/h) 0 mm0 mm 24.2 °C 25 °C 24.6 °C 23.2 °C 60000 m 0   0 cm 6 min 26.4 W/m² 1025.1 hPa
08:00 17 °C 12.5 °C 75 % 7 km/h (11 km/h) 0 mm0 mm 24.2 °C 25 °C 24.7 °C 23.2 °C 60000 m 0   0 cm 6 min 19.9 W/m² 1025 hPa
07:54 16.8 °C 12.3 °C 75 % 7 km/h (11 km/h) 0 mm0 mm 24.2 °C 25 °C 24.6 °C 23.2 °C 60000 m 0   0 cm 6 min 13.9 W/m² 1024.9 hPa
07:48 16.8 °C 12.3 °C 75 % 8 km/h (11 km/h) 0 mm0 mm 24.3 °C 25 °C 24.6 °C 23.2 °C 60000 m 0   0 cm 6 min 10.1 W/m² 1024.8 hPa
07:42 16.6 °C 12.3 °C 76 % 8 km/h (10 km/h) 0 mm0 mm 24.3 °C 25 °C 24.6 °C 23.2 °C 60000 m 0   0 cm 1 min 5.3 W/m² 1024.7 hPa
07:36 16.6 °C 12.3 °C 76 % 8 km/h (9 km/h) 0 mm0 mm 24.3 °C 25.1 °C 24.6 °C 23.2 °C 60000 m 0   0 cm 0 min 0 W/m² 1024.7 hPa
07:30 16.6 °C 12.1 °C 75 % 8 km/h (9 km/h) 0 mm0 mm 24.4 °C 25.1 °C 24.6 °C 23.2 °C 60000 m 0   0 cm 0 min 0 W/m² 1024.6 hPa
07:24 16.7 °C 12.2 °C 75 % 8 km/h (10 km/h) 0 mm0 mm 24.4 °C 25.1 °C 24.6 °C 23.2 °C 60000 m 0   0 cm 0 min 0 W/m² 1024.6 hPa
07:18 16.8 °C 12.1 °C 74 % 7 km/h (9 km/h) 0 mm0 mm 24.4 °C 25.1 °C 24.6 °C 23.2 °C 60000 m 0   0 cm 0 min 0 W/m² 1024.5 hPa
07:12 16.9 °C 12.2 °C 74 % 7 km/h (10 km/h) 0 mm0 mm 24.4 °C 25.1 °C 24.6 °C 23.2 °C 60000 m 0   0 cm 0 min 0 W/m² 1024.4 hPa
07:06 16.9 °C 12.2 °C 74 % 7 km/h (10 km/h) 0 mm0 mm 24.5 °C 25.1 °C 24.6 °C 23.2 °C 60000 m 0   0 cm 0 min 0 W/m² 1024.4 hPa
07:00 16.8 °C 12.1 °C 74 % 7 km/h (10 km/h) 0 mm0 mm 24.5 °C 25.2 °C 24.6 °C 23.2 °C 60000 m 0   0 cm 0 min 0 W/m² 1024.3 hPa
06:54 17 °C 12.1 °C 73 % 9 km/h (14 km/h) 0 mm0 mm 24.5 °C 25.2 °C 24.6 °C 23.2 °C 60000 m 0   0 cm 0 min 0 W/m² 1024.3 hPa
06:48 17.3 °C 12.4 °C 73 % 11 km/h (16 km/h) 0 mm0 mm 24.5 °C 25.2 °C 24.6 °C 23.2 °C 60000 m 0   0 cm 0 min 0 W/m² 1024.3 hPa
06:42 17.3 °C 12.4 °C 73 % 11 km/h (16 km/h) 0 mm0 mm 24.6 °C 25.2 °C 24.6 °C 23.2 °C 60000 m 0   0 cm 0 min 0 W/m² 1024.3 hPa
06:36 17.2 °C 12.3 °C 73 % 10 km/h (14 km/h) 0 mm0 mm 24.6 °C 25.3 °C 24.6 °C 23.2 °C 60000 m 0   0 cm 0 min 0 W/m² 1024.3 hPa
06:30 17.2 °C 12.3 °C 73 % 11 km/h (13 km/h) 0 mm0 mm 24.6 °C 25.3 °C 24.6 °C 23.2 °C 60000 m 0   0 cm 0 min 0 W/m² 1024.3 hPa
06:24 17.2 °C 12.3 °C 73 % 10 km/h (13 km/h) 0 mm0 mm 24.6 °C 25.3 °C 24.6 °C 23.2 °C 60000 m 0   0 cm 0 min 0 W/m² 1024.1 hPa
06:18 17.2 °C 12.3 °C 73 % 8 km/h (11 km/h) 0 mm0 mm 24.7 °C 25.3 °C 24.6 °C 23.2 °C 60000 m 0   0 cm 0 min 0 W/m² 1024.1 hPa
06:12 17.2 °C 12.3 °C 73 % 7 km/h (11 km/h) 0 mm0 mm 24.7 °C 25.3 °C 24.6 °C 23.2 °C 60000 m 0   0 cm 0 min 0 W/m² 1024.1 hPa
06:06 16.9 °C 12 °C 73 % 6 km/h (8 km/h) 0 mm0 mm 24.7 °C 25.3 °C 24.6 °C 23.2 °C 60000 m 0   0 cm 0 min 0 W/m² 1024.1 hPa
06:00 17 °C 11.9 °C 72 % 7 km/h (9 km/h) 0 mm0 mm 24.7 °C 25.4 °C 24.6 °C 23.2 °C 60000 m 0   0 cm 0 min 0 W/m² 1024.1 hPa
05:54 17.2 °C 12.1 °C 72 % 8 km/h (10 km/h) 0 mm0 mm 24.8 °C 25.3 °C 24.6 °C 23.2 °C 60000 m 0   0 cm 0 min 0 W/m² 1024.1 hPa
05:48 17.2 °C 11.9 °C 71 % 7 km/h (10 km/h) 0 mm0 mm 24.8 °C 25.4 °C 24.6 °C 23.2 °C 60000 m 0   0 cm 0 min 0 W/m² 1024.1 hPa
05:42 17.4 °C 11.9 °C 70 % 8 km/h (11 km/h) 0 mm0 mm 24.8 °C 25.4 °C 24.6 °C 23.2 °C 60000 m 0   0 cm 0 min 0 W/m² 1024.1 hPa
05:36 17.7 °C 12.2 °C 70 % 9 km/h (11 km/h) 0 mm0 mm 24.8 °C 25.4 °C 24.6 °C 23.2 °C 60000 m 0   0 cm 0 min 0 W/m² 1024 hPa
05:30 17.8 °C 12 °C 69 % 9 km/h (11 km/h) 0 mm0 mm 24.9 °C 25.5 °C 24.6 °C 23.2 °C 60000 m 0   0 cm 0 min 0 W/m² 1024 hPa
05:24 17.8 °C 12 °C 69 % 7 km/h (10 km/h) 0 mm0 mm 24.9 °C 25.5 °C 24.6 °C 23.2 °C 60000 m 0   0 cm 0 min 0 W/m² 1024 hPa
05:18 17.9 °C 11.9 °C 68 % 7 km/h (10 km/h) 0 mm0 mm 24.9 °C 25.5 °C 24.6 °C 23.2 °C 60000 m 0   0 cm 0 min 0 W/m² 1024 hPa
05:12 18 °C 12 °C 68 % 6 km/h (9 km/h) 0 mm0 mm 25 °C 25.5 °C 24.6 °C 23.2 °C 60000 m 0   0 cm 0 min 0 W/m² 1024 hPa
05:06 18 °C 11.8 °C 67 % 7 km/h (10 km/h) 0 mm0 mm 25 °C 25.6 °C 24.6 °C 23.2 °C 60000 m 0   0 cm 0 min 0 W/m² 1024 hPa
05:00 18.1 °C 11.9 °C 67 % 7 km/h (10 km/h) 0 mm0 mm 25 °C 25.6 °C 24.6 °C 23.2 °C 60000 m 0   0 cm 0 min 0 W/m² 1024 hPa
04:54 18.2 °C 11.7 °C 66 % 6 km/h (10 km/h) 0 mm0 mm 25.1 °C 25.6 °C 24.6 °C 23.3 °C 60000 m 0   0 cm 0 min 0 W/m² 1023.9 hPa
04:48 18.3 °C 11.8 °C 66 % 7 km/h (10 km/h) 0 mm0 mm 25.1 °C 25.6 °C 24.6 °C 23.2 °C 60000 m 0   0 cm 0 min 0 W/m² 1024 hPa
04:42 18.4 °C 11.9 °C 66 % 7 km/h (10 km/h) 0 mm0 mm 25.1 °C 25.6 °C 24.6 °C 23.2 °C 60000 m 0   0 cm 0 min 0 W/m² 1024 hPa
04:36 18.3 °C 11.8 °C 66 % 8 km/h (10 km/h) 0 mm0 mm 25.1 °C 25.6 °C 24.6 °C 23.2 °C 60000 m 0   0 cm 0 min 0 W/m² 1024 hPa
04:30 18.2 °C 11.7 °C 66 % 9 km/h (12 km/h) 0 mm0 mm 25.2 °C 25.6 °C 24.6 °C 23.2 °C 60000 m 0   0 cm 0 min 0 W/m² 1024 hPa
04:24 18.3 °C 11.6 °C 65 % 9 km/h (11 km/h) 0 mm0 mm 25.2 °C 25.6 °C 24.6 °C 23.2 °C 60000 m 0   0 cm 0 min 0 W/m² 1024 hPa
04:18 18.5 °C 11.6 °C 64 % 9 km/h (11 km/h) 0 mm0 mm 25.2 °C 25.6 °C 24.6 °C 23.2 °C 60000 m 0   0 cm 0 min 0 W/m² 1024.1 hPa
04:12 18.6 °C 11.4 °C 63 % 10 km/h (12 km/h) 0 mm0 mm 25.2 °C 25.7 °C 24.6 °C 23.2 °C 60000 m 0   0 cm 0 min 0 W/m² 1024 hPa
04:06 19.2 °C 11.7 °C 62 % 10 km/h (12 km/h) 0 mm0 mm 25.3 °C 25.7 °C 24.6 °C 23.2 °C 60000 m 0   0 cm 0 min 0 W/m² 1023.9 hPa
04:00 19.5 °C 11.8 °C 61 % 10 km/h (13 km/h) 0 mm0 mm 25.3 °C 25.7 °C 24.6 °C 23.2 °C 60000 m 0   0 cm 0 min 0 W/m² 1023.8 hPa
03:54 19.3 °C 11.8 °C 62 % 10 km/h (14 km/h) 0 mm0 mm 25.3 °C 25.7 °C 24.6 °C 23.2 °C 60000 m 0   0 cm 0 min 0 W/m² 1023.9 hPa
03:48 19.2 °C 11.5 °C 61 % 10 km/h (13 km/h) 0 mm0 mm 25.4 °C 25.7 °C 24.6 °C 23.2 °C 60000 m 0   0 cm 0 min 0 W/m² 1024 hPa
03:42 19.6 °C 11.6 °C 60 % 10 km/h (12 km/h) 0 mm0 mm 25.4 °C 25.7 °C 24.6 °C 23.2 °C 60000 m 0   0 cm 0 min 0 W/m² 1023.8 hPa
03:36 19.8 °C 11.8 °C 60 % 11 km/h (13 km/h) 0 mm0 mm 25.4 °C 25.8 °C 24.6 °C 23.2 °C 60000 m 0   0 cm 0 min 0 W/m² 1023.8 hPa
03:30 19.7 °C 11.7 °C 60 % 10 km/h (12 km/h) 0 mm0 mm 25.5 °C 25.8 °C 24.6 °C 23.2 °C 60000 m 0   0 cm 0 min 0 W/m² 1023.9 hPa
03:24 19.5 °C 11.8 °C 61 % 10 km/h (12 km/h) 0 mm0 mm 25.5 °C 25.8 °C 24.6 °C 23.2 °C 60000 m 0   0 cm 0 min 0 W/m² 1023.9 hPa
03:18 19.7 °C 11.7 °C 60 % 10 km/h (12 km/h) 0 mm0 mm 25.5 °C 25.8 °C 24.6 °C 23.2 °C 60000 m 0   0 cm 0 min 0 W/m² 1023.8 hPa
03:12 19.7 °C 11.7 °C 60 % 9 km/h (12 km/h) 0 mm0 mm 25.6 °C 25.9 °C 24.6 °C 23.2 °C 60000 m 0   0 cm 0 min 0 W/m² 1023.9 hPa
03:06 19.8 °C 11.6 °C 59 % 8 km/h (10 km/h) 0 mm0 mm 25.6 °C 25.8 °C 24.6 °C 23.2 °C 60000 m 0   0 cm 0 min 0 W/m² 1023.9 hPa
03:00 20 °C 11.7 °C 59 % 7 km/h (10 km/h) 0 mm0 mm 25.6 °C 25.9 °C 24.6 °C 23.2 °C 60000 m 0   0 cm 0 min 0 W/m² 1023.9 hPa
02:54 20.2 °C 11.7 °C 58 % 7 km/h (10 km/h) 0 mm0 mm 25.7 °C 25.9 °C 24.6 °C 23.2 °C 60000 m 0   0 cm 0 min 0 W/m² 1023.9 hPa
02:48 20.4 °C 11.6 °C 57 % 9 km/h (11 km/h) 0 mm0 mm 25.7 °C 25.9 °C 24.5 °C 23.2 °C 60000 m 0   0 cm 0 min 0 W/m² 1023.8 hPa
02:42 20.7 °C 11.9 °C 57 % 10 km/h (12 km/h) 0 mm0 mm 25.7 °C 25.9 °C 24.6 °C 23.2 °C 60000 m 0   0 cm 0 min 0 W/m² 1023.8 hPa
02:36 20.7 °C 11.9 °C 57 % 9 km/h (12 km/h) 0 mm0 mm 25.7 °C 25.9 °C 24.6 °C 23.2 °C 60000 m 0   0 cm 0 min 0 W/m² 1023.8 hPa
02:30 20.7 °C 11.9 °C 57 % 9 km/h (11 km/h) 0 mm0 mm 25.8 °C 25.9 °C 24.6 °C 23.2 °C 60000 m 0   0 cm 0 min 0 W/m² 1023.7 hPa
02:24 20.8 °C 12 °C 57 % 9 km/h (11 km/h) 0 mm0 mm 25.8 °C 26 °C 24.6 °C 23.2 °C 60000 m 0   0 cm 0 min 0 W/m² 1023.6 hPa
02:18 20.7 °C 11.9 °C 57 % 9 km/h (11 km/h) 0 mm0 mm 25.8 °C 26 °C 24.6 °C 23.2 °C 60000 m 0   0 cm 0 min 0 W/m² 1023.6 hPa
02:12 20.6 °C 12 °C 58 % 9 km/h (11 km/h) 0 mm0 mm 25.8 °C 26 °C 24.6 °C 23.2 °C 60000 m 0   0 cm 0 min 0 W/m² 1023.7 hPa
02:06 20.6 °C 12 °C 58 % 9 km/h (11 km/h) 0 mm0 mm 25.9 °C 26 °C 24.5 °C 23.2 °C 60000 m 0   0 cm 0 min 0 W/m² 1023.7 hPa
02:00 21 °C 12.2 °C 57 % 9 km/h (11 km/h) 0 mm0 mm 25.9 °C 26 °C 24.5 °C 23.2 °C 60000 m 0   0 cm 0 min 0 W/m² 1023.6 hPa
01:54 21.2 °C 12.3 °C 57 % 9 km/h (11 km/h) 0 mm0 mm 25.9 °C 26 °C 24.5 °C 23.2 °C 60000 m 0   0 cm 0 min 0 W/m² 1023.6 hPa
01:48 21.3 °C 12.4 °C 57 % 9 km/h (12 km/h) 0 mm0 mm 26 °C 26 °C 24.5 °C 23.2 °C 60000 m 0   0 cm 0 min 0 W/m² 1023.6 hPa
01:42 21.2 °C 12.3 °C 57 % 11 km/h (14 km/h) 0 mm0 mm 26 °C 26.1 °C 24.6 °C 23.2 °C 60000 m 0   0 cm 0 min 0 W/m² 1023.5 hPa
01:36 21.3 °C 12.4 °C 57 % 11 km/h (14 km/h) 0 mm0 mm 26.1 °C 26.1 °C 24.5 °C 23.2 °C 60000 m 0   0 cm 0 min 0 W/m² 1023.5 hPa
01:30 21.2 °C 12.3 °C 57 % 10 km/h (12 km/h) 0 mm0 mm 26.1 °C 26.1 °C 24.6 °C 23.2 °C 60000 m 0   0 cm 0 min 0 W/m² 1023.5 hPa
01:24 21.3 °C 12.4 °C 57 % 10 km/h (12 km/h) 0 mm0 mm 26.1 °C 26.1 °C 24.5 °C 23.2 °C 60000 m 0   0 cm 0 min 0 W/m² 1023.5 hPa
01:18 21.6 °C 12.7 °C 57 % 10 km/h (12 km/h) 0 mm0 mm 26.1 °C 26.1 °C 24.5 °C 23.2 °C 60000 m 0   0 cm 0 min 0 W/m² 1023.5 hPa
01:12 21.9 °C 12.7 °C 56 % 10 km/h (13 km/h) 0 mm0 mm 26.1 °C 26.1 °C 24.5 °C 23.2 °C 60000 m 0   0 cm 0 min 0 W/m² 1023.5 hPa
01:06 22 °C 12.8 °C 56 % 12 km/h (13 km/h) 0 mm0 mm 26.2 °C 26.1 °C 24.5 °C 23.2 °C 60000 m 0   0 cm 0 min 0 W/m² 1023.4 hPa
01:00 21.8 °C 12.9 °C 57 % 10 km/h (13 km/h) 0 mm0 mm 26.3 °C 26.1 °C 24.5 °C 23.2 °C 60000 m 0   0 cm 0 min 0 W/m² 1023.4 hPa
00:54 21.9 °C 13 °C 57 % 10 km/h (12 km/h) 0 mm0 mm 26.3 °C 26.2 °C 24.5 °C 23.2 °C 60000 m 0   0 cm 0 min 0 W/m² 1023.4 hPa
00:48 21.7 °C 12.8 °C 57 % 11 km/h (13 km/h) 0 mm0 mm 26.3 °C 26.2 °C 24.5 °C 23.2 °C 60000 m 0   0 cm 0 min 0 W/m² 1023.3 hPa
00:42 21.7 °C 12.8 °C 57 % 11 km/h (13 km/h) 0 mm0 mm 26.3 °C 26.2 °C 24.5 °C 23.2 °C 60000 m 0   0 cm 0 min 0 W/m² 1023.3 hPa
00:36 22.1 °C 12.9 °C 56 % 12 km/h (14 km/h) 0 mm0 mm 26.4 °C 26.2 °C 24.5 °C 23.2 °C 60000 m 0   0 cm 0 min 0 W/m² 1023.3 hPa
00:30 22.4 °C 12.9 °C 55 % 12 km/h (14 km/h) 0 mm0 mm 26.4 °C 26.2 °C 24.5 °C 23.2 °C 60000 m 0   0 cm 0 min 0 W/m² 1023.3 hPa
00:24 22.5 °C 13 °C 55 % 13 km/h (15 km/h) 0 mm0 mm 26.4 °C 26.2 °C 24.5 °C 23.2 °C 60000 m 0   0 cm 0 min 0 W/m² 1023.2 hPa
00:18 22.5 °C 13.3 °C 56 % 13 km/h (15 km/h) 0 mm0 mm 26.5 °C 26.3 °C 24.5 °C 23.2 °C 60000 m 0   0 cm 0 min 0 W/m² 1023.3 hPa
00:12 22.5 °C 13 °C 55 % 13 km/h (15 km/h) 0 mm0 mm 26.5 °C 26.3 °C 24.5 °C 23.2 °C 60000 m 0   0 cm 0 min 0 W/m² 1023.2 hPa
00:06 22.7 °C 13.2 °C 55 % 12 km/h (14 km/h) 0 mm0 mm 26.5 °C 26.3 °C 24.5 °C 23.2 °C 60000 m 0   0 cm 0 min 0 W/m² 1023.2 hPa
00:00 22.7 °C 13.2 °C 55 % 12 km/h (14 km/h) 0 mm0 mm 26.5 °C 26.3 °C 24.5 °C 23.2 °C 60000 m 0   0 cm 0 min 0 W/m² 1023.2 hPa

Données via Météo-France

Relevés météo à Toulouse-Blagnac

Cette page rassemble les observations de la station de Toulouse-Blagnac : température, humidité, vent, précipitations et pression atmosphérique. Les graphiques facilitent le suivi de la journée, tandis que le tableau donne accès aux mesures horaires et infra-horaires disponibles.

Pour replacer ces mesures dans leur contexte, consultez la climatologie de Toulouse-Blagnac ainsi que ses normales et records. Retrouvez aussi la carte des observations météo en temps réel.